To NAV CANADA Home Page Login to a new session Search on AWWS site Feedback and Comments Disclaimer Vers la page française équivalente Tips FAQ What's new on the site To the Forecasts and Observations / NOTAM section To "File a Flight Plan" website Publications and other links Update of the User's profile FIC Telephone Numbers My Weather Data Folder Route Weather Data Regional Weather Data Local Weather Data To the Forecasts and Observations / NOTAM section
Request Generated 07/30/2016 at 22:35:05 UTC . Weather information available at that time is displayed.

METAR/TAF

AUPALUK/QC    

LWIS CYLA 302200Z AUTO 03010KT 04/03 A3008=
METAR CYLA 302100Z 03011KT 15SM SCT065 BKN110 05/03 A3008 RMK SC3AC3
LAST STFD OBS/NXT 311200 UTC SLP188=
METAR CYLA 302000Z 02007KT 15SM BKN065 07/03 A3007 RMK SC5 SLP186=

CYLA - No TAF is issued for this station

Your time UTC time
Weather data provided by Environment Canada and NAV CANADA